Overview Statistics Trail Chart Weather Telemetry Raw packets
 

This is the latest recevied weather packets stored in our database for station/object W5GMO. If no packets are shown the sender has not sent any weather packets the latest 10 day(s).

<< 104 105 106 107 108 109 110 >>
Time Temp. Humidity Pressure Rain* Wind** Luminosity Snow
1787853644 32.22° C 1% 1014.2 hPa 0 mm - 722 W/m² -
1787853343 32.22° C 1% 1014.6 hPa 0 mm - 643 W/m² -
1787853033 32.22° C 1% 1014.7 hPa 0 mm - 362 W/m² -
1787852733 31.67° C 1% 1014.8 hPa 0 mm - 774 W/m² -
1787852432 31.11° C 1% 1014.6 hPa 0 mm - 703 W/m² -
1787852131 31.67° C 1% 1014.7 hPa 0 mm - 588 W/m² -
1787851822 31.67° C 1% 1015 hPa 0 mm - 796 W/m² -
1787851521 31.11° C 1% 1014.7 hPa 0 mm - 576 W/m² -
1787851221 30° C 1% 1015.1 hPa 0 mm - 569 W/m² -
1787850916 30.56° C 1% 1014.9 hPa 0 mm - 540 W/m² -
1787850618 30° C 1% 1015.2 hPa 0 mm - 590 W/m² -
1787850307 30° C 1% 1015.1 hPa 0 mm - 598 W/m² -
1787850002 30.56° C 1% 1015.1 hPa 0 mm - 472 W/m² -
1787849696 30.56° C 1% 1015.2 hPa 0 mm - 638 W/m² -
1787849391 30° C 1% 1015.2 hPa 0 mm - 509 W/m² -
1787849084 29.44° C 1% 1015.2 hPa 0 mm - 452 W/m² -
1787848779 29.44° C 1% 1015.4 hPa 0 mm - 598 W/m² -
1787848479 28.89° C 1% 1015.2 hPa 0 mm - 576 W/m² -
1787848174 28.89° C 1% 1015.4 hPa 0 mm - 396 W/m² -
1787847873 28.89° C 1% 1015.4 hPa 0 mm - 356 W/m² -
1787847568 28.89° C 1% 1015.4 hPa 0 mm - 495 W/m² -
1787847263 28.33° C 1% 1015.6 hPa 0 mm - 455 W/m² -
1787846960 28.33° C 1% 1015.5 hPa 0 mm - 440 W/m² -
1787846660 28.89° C 1% 1015.4 hPa 0 mm - 495 W/m² -
1787846355 27.78° C 1% 1015.6 hPa 0 mm - 440 W/m² -

* Rain latest hour (hover to see other rain measurements)
** Current wind speed in m/s (hover to see current wind gust speed)